TimeAWST,TemperatureF,Dew PointF,Humidity,Sea Level PressureIn,VisibilityMPH,Wind Direction,Wind SpeedMPH,Gust SpeedMPH,PrecipitationIn,Events,Conditions,WindDirDegrees,DateUTC
12:00 AM,73.4,64.4,73,29.92,-9999.0,SW,3.5,-,N/A,,Unknown,230,2012-10-15 16:00:00
1:00 AM,71.6,62.6,73,29.92,-9999.0,SW,3.5,-,N/A,,Unknown,220,2012-10-15 17:00:00
2:00 AM,69.8,66.2,88,29.89,-9999.0,SW,4.6,-,N/A,,Unknown,230,2012-10-15 18:00:00
3:00 AM,71,67,84,29.91,,North,4.6,,,,,0,2012-10-15 19:00:00
3:00 AM,71.6,68.0,88,29.92,-9999.0,North,4.6,-,N/A,,Unknown,360,2012-10-15 19:00:00
4:00 AM,69.8,64.4,83,29.92,-9999.0,NE,4.6,-,N/A,,Unknown,50,2012-10-15 20:00:00
5:00 AM,68.0,64.4,88,29.92,-9999.0,NNE,3.5,-,N/A,,Unknown,30,2012-10-15 21:00:00
6:00 AM,68,65,88,29.95,,Calm,Calm,,,,,,2012-10-15 22:00:00
6:00 AM,68.0,66.2,94,29.95,-9999.0,Calm,Calm,-,N/A,,Unknown,0,2012-10-15 22:00:00
7:00 AM,77.0,71.6,83,29.95,-9999.0,NNW,5.8,-,N/A,,Unknown,340,2012-10-15 23:00:00
8:00 AM,84.2,69.8,62,29.98,-9999.0,NW,5.8,-,N/A,,Unknown,310,2012-10-16 00:00:00
9:00 AM,88,66,39,29.96,,NW,6.9,,,,,310,2012-10-16 01:00:00
9:00 AM,87.8,66.2,49,29.95,-9999.0,NW,6.9,-,N/A,,Unknown,310,2012-10-16 01:00:00
10:00 AM,91.4,66.2,43,29.95,-9999.0,WNW,6.9,-,N/A,,Unknown,290,2012-10-16 02:00:00
11:00 AM,95.0,60.8,32,29.92,-9999.0,West,6.9,-,N/A,,Unknown,260,2012-10-16 03:00:00
12:00 PM,97,59,19,29.88,,West,9.2,,,,,260,2012-10-16 04:00:00
12:00 PM,96.8,59.0,28,29.89,-9999.0,West,9.2,-,N/A,,Unknown,260,2012-10-16 04:00:00
1:00 PM,98.6,55.4,24,29.86,-9999.0,NNW,5.8,-,N/A,,Unknown,330,2012-10-16 05:00:00
2:00 PM,102.2,51.8,18,29.83,-9999.0,WNW,6.9,-,N/A,,Unknown,300,2012-10-16 06:00:00
3:00 PM,102,56,14,29.80,,West,4.6,,,,,280,2012-10-16 07:00:00
3:00 PM,102.2,55.4,21,29.80,-9999.0,West,4.6,-,N/A,,Unknown,280,2012-10-16 07:00:00
4:00 PM,98.6,59.0,27,29.80,-9999.0,NW,9.2,-,N/A,,Unknown,310,2012-10-16 08:00:00
5:00 PM,95.0,66.2,39,29.80,-9999.0,NNW,8.1,-,N/A,,Unknown,340,2012-10-16 09:00:00
6:00 PM,87.8,66.2,49,29.83,-9999.0,North,6.9,-,N/A,,Unknown,350,2012-10-16 10:00:00
7:00 PM,84.2,69.8,62,29.86,-9999.0,North,9.2,-,N/A,,Unknown,350,2012-10-16 11:00:00
8:00 PM,82.4,71.6,70,29.89,-9999.0,NNW,6.9,-,N/A,,Unknown,340,2012-10-16 12:00:00
9:00 PM,79,69,65,29.89,,North,4.6,,,,,350,2012-10-16 13:00:00
9:00 PM,78.8,69.8,74,29.89,-9999.0,North,4.6,-,N/A,,Unknown,350,2012-10-16 13:00:00
10:00 PM,77.0,68.0,74,29.89,-9999.0,NW,3.5,-,N/A,,Unknown,320,2012-10-16 14:00:00
11:00 PM,73.4,66.2,78,29.89,-9999.0,WNW,2.3,-,N/A,,Unknown,300,2012-10-16 15:00:00